• In Switzerland
  • List of Countries
  • For 7 days
  • Water Temperature
  • Satellite Maps
  • Weather Map
  • Weather Widgets
  • user-avatar
    Login

    Hourly Weather Blenheim

    Today, 18 January, Thursday

    Time Temperature Precipitation Wind Pressure Humidity
    00:00 +19°C° 0 mm 6 mps 759 mmHg 95%
    01:00 +19°C° 0.8 mm 6 mps 759 mmHg 95%
    02:00 +19°C° 0.8 mm 6 mps 759 mmHg 95%
    03:00 +20°C° 0.8 mm 5 mps 758 mmHg 95%
    04:00 +20°C° 0.3 mm 5 mps 758 mmHg 95%
    05:00 +20°C° 0.3 mm 5 mps 758 mmHg 95%
    06:00 +20°C° 0 mm 4 mps 758 mmHg 95%
    07:00 +20°C° 0.2 mm 5 mps 758 mmHg 93%
    08:00 +21°C° 0.2 mm 5 mps 758 mmHg 91%
    09:00 +21°C° 0.2 mm 5 mps 758 mmHg 89%
    10:00 +22°C° 0.1 mm 5 mps 758 mmHg 86%
    11:00 +22°C° 0.1 mm 5 mps 758 mmHg 84%
    12:00 +23°C° 0 mm 4 mps 758 mmHg 76%
    13:00 +25°C° 0.1 mm 4 mps 758 mmHg 76%
    14:00 +25°C° 0.1 mm 4 mps 758 mmHg 76%
    15:00 +25°C° 0.1 mm 5 mps 757 mmHg 75%
    16:00 +25°C° 0.1 mm 5 mps 757 mmHg 76%
    17:00 +23°C° 0.1 mm 4 mps 757 mmHg 77%
    18:00 +24°C° 0 mm 3 mps 757 mmHg 75%
    19:00 +22°C° 0 mm 3 mps 758 mmHg 81%
    20:00 +21°C° 0 mm 4 mps 758 mmHg 86%
    21:00 +19°C° 0 mm 4 mps 758 mmHg 91%
    22:00 +19°C° 0 mm 4 mps 758 mmHg 91%
    23:00 +19°C° 0 mm 3 mps 759 mmHg 91%

    Tomorrow, 19 January, Friday

    Time Temperature Precipitation Wind Pressure Humidity
    00:00 +19°C° 0 mm 3 mps 759 mmHg 92%
    01:00 +18°C° 0 mm 3 mps 759 mmHg 92%
    02:00 +18°C° 0 mm 3 mps 759 mmHg 93%
    03:00 +18°C° 0 mm 3 mps 759 mmHg 93%
    04:00 +18°C° 0 mm 2 mps 759 mmHg 92%
    05:00 +18°C° 0 mm 2 mps 759 mmHg 92%
    06:00 +19°C° 0 mm 1 mps 760 mmHg 91%
    07:00 +21°C° 0 mm 1 mps 760 mmHg 83%
    08:00 +23°C° 0 mm 1 mps 760 mmHg 75%
    09:00 +25°C° 0 mm 1 mps 761 mmHg 66%
    10:00 +26°C° 0 mm 2 mps 760 mmHg 63%
    11:00 +27°C° 0 mm 2 mps 760 mmHg 60%
    12:00 +27°C° 0 mm 3 mps 760 mmHg 57%
    13:00 +28°C° 0 mm 3 mps 760 mmHg 57%
    14:00 +28°C° 0 mm 3 mps 760 mmHg 57%
    15:00 +28°C° 0 mm 3 mps 760 mmHg 56%
    16:00 +28°C° 0 mm 4 mps 760 mmHg 59%
    17:00 +27°C° 0 mm 4 mps 760 mmHg 61%
    18:00 +27°C° 0 mm 4 mps 760 mmHg 64%
    19:00 +25°C° 0 mm 4 mps 760 mmHg 72%
    20:00 +22°C° 0 mm 4 mps 760 mmHg 81%
    21:00 +21°C° 0 mm 4 mps 761 mmHg 89%
    22:00 +21°C° 0 mm 4 mps 761 mmHg 89%
    23:00 +21°C° 0 mm 4 mps 761 mmHg 90%

    Day after tomorrow, 20 January, Saturday

    Time Temperature Precipitation Wind Pressure Humidity
    00:00 +21°C° 0 mm 4 mps 761 mmHg 90%
    01:00 +20°C° 0 mm 4 mps 761 mmHg 91%
    02:00 +20°C° 0 mm 4 mps 760 mmHg 92%
    03:00 +20°C° 0 mm 5 mps 760 mmHg 92%
    04:00 +20°C° 0 mm 5 mps 760 mmHg 91%
    05:00 +20°C° 0 mm 5 mps 760 mmHg 90%
    06:00 +20°C° 0 mm 5 mps 760 mmHg 89%
    07:00 +22°C° 0 mm 5 mps 761 mmHg 78%
    08:00 +24°C° 0 mm 6 mps 761 mmHg 67%
    09:00 +27°C° 0 mm 6 mps 761 mmHg 57%
    10:00 +28°C° 0 mm 6 mps 761 mmHg 53%
    11:00 +30°C° 0 mm 6 mps 761 mmHg 49%
    12:00 +32°C° 0 mm 6 mps 761 mmHg 45%
    13:00 +32°C° 0 mm 6 mps 761 mmHg 47%
    14:00 +32°C° 0 mm 6 mps 760 mmHg 50%
    15:00 +32°C° 0 mm 6 mps 760 mmHg 52%
    16:00 +30°C° 0 mm 6 mps 760 mmHg 56%
    17:00 +29°C° 0 mm 5 mps 760 mmHg 61%
    18:00 +28°C° 0 mm 5 mps 760 mmHg 65%
    19:00 +26°C° 0 mm 5 mps 760 mmHg 73%
    20:00 +23°C° 0 mm 4 mps 761 mmHg 81%
    21:00 +22°C° 0 mm 4 mps 761 mmHg 88%
    22:00 +21°C° 0 mm 4 mps 761 mmHg 88%
    23:00 +21°C° 0 mm 3 mps 761 mmHg 88%

    21 January, Sunday

    Time Temperature Precipitation Wind Pressure Humidity
    00:00 +20°C° 0 mm 3 mps 762 mmHg 88%
    01:00 +20°C° 0 mm 3 mps 762 mmHg 88%
    02:00 +20°C° 0 mm 3 mps 761 mmHg 88%
    03:00 +19°C° 0 mm 3 mps 761 mmHg 88%
    04:00 +19°C° 0 mm 3 mps 761 mmHg 87%
    05:00 +19°C° 0 mm 3 mps 762 mmHg 86%
    06:00 +19°C° 0 mm 3 mps 762 mmHg 85%
    07:00 +21°C° 0 mm 3 mps 762 mmHg 75%
    08:00 +25°C° 0 mm 2 mps 762 mmHg 66%
    09:00 +27°C° 0 mm 2 mps 762 mmHg 56%
    10:00 +28°C° 0 mm 2 mps 762 mmHg 53%
    11:00 +29°C° 0 mm 3 mps 762 mmHg 51%
    12:00 +30°C° 0 mm 3 mps 762 mmHg 49%
    13:00 +29°C° 0 mm 3 mps 762 mmHg 50%
    14:00 +29°C° 0 mm 3 mps 761 mmHg 52%
    15:00 +29°C° 0 mm 3 mps 761 mmHg 54%
    16:00 +28°C° 0 mm 3 mps 761 mmHg 59%
    17:00 +27°C° 0 mm 3 mps 761 mmHg 64%
    18:00 +26°C° 0 mm 3 mps 760 mmHg 70%
    19:00 +25°C° 0 mm 3 mps 761 mmHg 75%
    20:00 +24°C° 0 mm 3 mps 761 mmHg 81%
    21:00 +22°C° 0 mm 3 mps 761 mmHg 86%
    22:00 +22°C° 0.1 mm 3 mps 761 mmHg 87%
    23:00 +22°C° 0.1 mm 3 mps 761 mmHg 88%

    22 January, Monday

    Time Temperature Precipitation Wind Pressure Humidity
    00:00 +22°C° 0.1 mm 3 mps 761 mmHg 90%
    01:00 +22°C° 0.3 mm 3 mps 760 mmHg 90%
    02:00 +21°C° 0.3 mm 4 mps 760 mmHg 91%
    03:00 +21°C° 0.3 mm 4 mps 759 mmHg 91%
    04:00 +21°C° 0.6 mm 4 mps 759 mmHg 92%
    05:00 +21°C° 0.6 mm 3 mps 759 mmHg 92%
    06:00 +21°C° 0.6 mm 3 mps 759 mmHg 93%
    07:00 +21°C° 1.5 mm 3 mps 759 mmHg 92%
    08:00 +21°C° 1.5 mm 3 mps 759 mmHg 92%
    09:00 +21°C° 1.5 mm 3 mps 759 mmHg 92%
    10:00 +21°C° 2 mm 3 mps 759 mmHg 91%
    11:00 +21°C° 2 mm 4 mps 759 mmHg 91%
    12:00 +22°C° 2 mm 4 mps 758 mmHg 90%
    13:00 +23°C° 0.4 mm 4 mps 758 mmHg 85%
    14:00 +25°C° 0.4 mm 4 mps 758 mmHg 80%
    15:00 +26°C° 0.4 mm 4 mps 757 mmHg 74%
    16:00 +26°C° 0.2 mm 4 mps 757 mmHg 73%
    17:00 +26°C° 0.2 mm 4 mps 757 mmHg 72%
    18:00 +27°C° 0.2 mm 4 mps 757 mmHg 71%
    19:00 +25°C° 0.1 mm 4 mps 757 mmHg 78%
    20:00 +24°C° 0.1 mm 3 mps 758 mmHg 86%
    21:00 +21°C° 0.1 mm 3 mps 758 mmHg 93%
    22:00 +21°C° 0.1 mm 3 mps 758 mmHg 93%
    23:00 +20°C° 0.1 mm 3 mps 758 mmHg 93%

    23 January, Tuesday

    Time Temperature Precipitation Wind Pressure Humidity
    00:00 +20°C° 0.1 mm 2 mps 759 mmHg 93%
    01:00 +19°C° 0 mm 2 mps 758 mmHg 92%
    02:00 +19°C° 0 mm 2 mps 758 mmHg 92%
    03:00 +20°C° 0 mm 1 mps 758 mmHg 91%
    04:00 +20°C° 0 mm 1 mps 758 mmHg 92%
    05:00 +20°C° 0 mm 1 mps 759 mmHg 92%
    06:00 +20°C° 0 mm 1 mps 759 mmHg 92%
    07:00 +21°C° 0 mm 1 mps 759 mmHg 87%
    08:00 +23°C° 0 mm 1 mps 760 mmHg 81%
    09:00 +25°C° 0 mm 1 mps 760 mmHg 75%
    10:00 +26°C° 0 mm 1 mps 760 mmHg 70%
    11:00 +27°C° 0 mm 1 mps 760 mmHg 66%
    12:00 +28°C° 0 mm 2 mps 760 mmHg 61%
    13:00 +28°C° 0.2 mm 2 mps 759 mmHg 60%
    14:00 +29°C° 0.2 mm 2 mps 759 mmHg 58%
    15:00 +29°C° 0.2 mm 3 mps 759 mmHg 57%
    16:00 +28°C° 0.2 mm 3 mps 759 mmHg 61%
    17:00 +28°C° 0.2 mm 2 mps 759 mmHg 65%
    18:00 +27°C° 0.2 mm 2 mps 759 mmHg 69%
    19:00 +25°C° 0.1 mm 2 mps 759 mmHg 76%
    20:00 +23°C° 0.1 mm 2 mps 760 mmHg 83%
    21:00 +22°C° 0.1 mm 1 mps 760 mmHg 90%
    22:00 +21°C° 0 mm 2 mps 760 mmHg 89%
    23:00 +20°C° 0 mm 2 mps 760 mmHg 88%
    Show more